x

8419317 - Wells, Me (welm1) Weather Station

9:54 - Sat 21st Jan 2017 All times are EST. -5 hours from GMT.

  • Wind
    2mph, 3mph gusts
  • Sea Temp 40°f
  • Ar Temp 39°f
  • Sea Pressure 1009.8mb
  • 8419317 - Wells, Me
  • 8419317 - Wells, Me

More Historic Weather Station data

Upgrade to MSW Pro to gain access to the past 30 days of data for over 8000 Wavebouys and Weather Stations around the globe.

Join Pro

Comparision Forecast

View Surf forecast
   
Sáb 01/21 9:54 2 3 mph 1009.8mb 40f 39f
9:48 2 3 mph 1009.8mb 40f 39f
9:42 2 3 mph 1009.9mb 40f 39f
9:36 1 2 mph 1010mb 40f 39f
9:30  -  1 mph 1010mb 40f 39f
9:24 2 3 mph 1010.1mb 40f 38f
9:18 2 5 mph 1010.1mb 40f 38f
9:12 2 5 mph 1010.2mb 40f 38f
9:06 2 3 mph 1010.2mb 40f 38f
9:00 2 5 mph 1010.2mb 40f 38f
8:54 1 5 mph 1010.2mb 40f 38f
8:48 1 3 mph 1010.3mb 40f 38f
8:42 3 6 mph 1010.1mb 40f 37f
8:36 2 5 mph 1010mb 40f 37f
8:30 3 7 mph 1010mb 40f 37f
8:24 5 7 mph 1010.1mb 40f 37f
8:18 5 6 mph 1010mb 40f 37f
8:12 5 6 mph 1009.9mb 40f 37f
8:06 5 7 mph 1010mb 40f 37f
8:00 7 8 mph 1010mb 40f 37f
7:54 5 8 mph 1010mb 40f 37f
7:48 6 7 mph 1010.1mb 40f 37f
7:42 6 8 mph 1010.1mb 40f 36f
7:36 6 7 mph 1010.1mb 40f 37f
7:30 7 8 mph 1010mb 40f 37f
7:24 6 7 mph 1010mb 41f 37f
7:18 5 6 mph 1010mb 41f 37f
7:12 5
mph
1010.1mb 41f 37f
7:06 3
mph
1010.2mb 41f 37f
7:00 3 5 mph 1010.1mb 41f 37f
6:54 2
mph
1010.1mb 41f 37f
6:48 1 2 mph 1010.2mb 41f 37f
6:42 1 2 mph 1010.3mb 41f 36f
6:36 2 3 mph 1010.4mb 41f 36f
6:30 2 3 mph 1010.5mb 41f 36f
6:24 2 3 mph 1010.5mb 41f 36f
6:18 2 3 mph 1010.4mb 41f 36f
6:12 2 3 mph 1010.4mb 41f 37f
6:06 3 5 mph 1010.4mb 41f 37f
6:00 3 6 mph 1010.4mb 41f 37f
5:54 6 7 mph 1010.5mb 41f 37f
5:48 6 7 mph 1010.5mb 41f 37f
5:42 6 7 mph 1010.5mb 41f 37f
5:36 6
mph
1010.4mb 41f 37f
5:30 5 6 mph 1010.5mb 41f 37f
5:24 3 6 mph 1010.5mb 41f 37f
5:18 5 6 mph 1010.7mb 41f 37f
5:12 5 6 mph 1010.7mb 41f 37f
5:06 5 6 mph 1010.8mb 41f 37f
5:00 5 6 mph 1010.9mb 41f 37f
4:54 3 6 mph 1011mb 41f 37f
4:48 3 6 mph 1011mb 41f 37f
4:42 6
mph
1011mb 41f 37f
4:36 5 6 mph 1011.1mb 41f 37f
4:30 5 7 mph 1011.2mb 41f 37f
4:24 6 8 mph 1011.3mb 41f 37f
4:18 7 8 mph 1011.3mb 41f 37f
4:12 7 9 mph 1011.4mb 41f 37f
4:06 8 9 mph 1011.5mb 41f 37f
4:00 7 9 mph 1011.5mb 41f 37f
3:54 7 8 mph 1011.5mb 41f 37f
3:48 6 8 mph 1011.6mb 41f 37f
3:42 6 7 mph 1011.6mb 41f 37f
3:36 5 6 mph 1011.7mb 41f 37f
3:30 5 6 mph 1011.8mb 41f 37f
3:24 5 6 mph 1011.8mb 41f 37f
3:18 5
mph
1011.9mb 41f 37f
3:12 3 5 mph 1011.9mb 41f 37f
3:06 3
mph
1011.9mb 41f 37f
3:00 3 5 mph 1012mb 41f 37f
2:54 3 5 mph 1012mb 41f 37f
2:48 2 3 mph 1012.1mb 40f 37f
2:42 3
mph
1012.1mb 40f 37f
2:36 2 3 mph 1012.1mb 40f 37f
2:30 3
mph
1012.1mb 40f 37f
2:24 2
mph
1012.3mb 40f 37f
2:18 1 2 mph 1012.4mb 40f 37f
2:12 2
mph
1012.5mb 40f 37f
2:06  -  2 mph 1012.5mb 40f 37f
2:00 2 3 mph 1012.6mb 40f 37f
1:54 3
mph
1012.5mb 40f 37f
1:48 2 6 mph 1012.4mb 40f 37f
1:42 3 5 mph 1012.4mb 40f 37f
1:36 2 3 mph 1012.4mb 40f 36f
1:30 2 3 mph 1012.4mb 40f 36f
1:24 2 3 mph 1012.3mb 40f 36f
1:18 2 3 mph 1012.3mb 40f 36f
1:12 2 3 mph 1012.3mb 40f 36f
1:06 2
mph
1012.3mb 40f 37f
1:00 2
mph
1012.3mb 40f 36f
12:54 1 3 mph 1012.4mb 40f 36f
12:48 2 3 mph 1012.4mb 40f -
12:42 2 3 mph 1012.5mb 40f -
12:36 2 3 mph 1012.6mb 40f -
12:30 2 3 mph 1012.6mb 40f 37f
12:24 3
mph
1012.6mb 40f 37f
12:18 3 5 mph 1012.6mb 40f 37f
12:12 2 5 mph 1012.6mb 40f 37f
12:06 3 5 mph 1012.6mb 40f 37f
12:00 3 5 mph 1012.8mb 40f 37f
Sex 01/20 11:54 3
mph
1012.9mb 40f 37f
11:48 2 3 mph 1013mb 40f 37f
11:42 2 3 mph 1013mb 40f 37f
11:36 3 5 mph 1013.2mb 40f 37f
11:30 2 3 mph 1013.3mb 40f 37f
11:24 2 3 mph 1013.4mb 40f 38f
11:18 3 5 mph 1013.4mb 40f 38f
11:12 3 5 mph 1013.4mb 40f 38f
11:06 2 6 mph 1013.4mb 40f 38f
11:00 3 6 mph 1013.5mb 40f 38f
10:54 3 6 mph 1013.4mb 40f 38f
10:48 5 7 mph 1013.5mb 40f 38f
10:42 5 7 mph 1013.5mb 40f 38f
10:36 5 7 mph 1013.6mb 40f 38f
10:30 3 7 mph 1013.6mb 40f 38f
10:24 5 8 mph 1013.7mb 40f 38f
10:18 6 8 mph 1013.6mb 40f 38f
10:12 6 7 mph 1013.6mb 40f 38f
10:06 6 8 mph 1013.6mb 40f 38f
10:00 5 7 mph 1013.6mb 40f 38f
9:54 5 6 mph 1013.6mb 40f 38f
9:48 5 9 mph 1013.7mb 40f 38f
9:42 6 8 mph 1013.7mb 40f 38f
9:36 6 8 mph 1013.7mb 40f 38f
9:30 3 6 mph 1013.8mb 40f 38f
9:24 3 6 mph 1013.8mb 40f 38f
9:18 3 6 mph 1013.9mb 40f 37f
9:12 2 5 mph 1013.8mb 40f 37f
9:06 3 5 mph 1013.9mb 40f 37f
9:00 3 5 mph 1013.9mb 40f 37f
8:54 2 3 mph 1014mb 40f 36f
8:48 1 2 mph 1014mb 40f 36f
8:42 1 2 mph 1014mb 40f 36f
8:36 2
mph
1014.1mb 40f 36f
8:30 1 2 mph 1014.1mb 40f 36f
8:24  -  1 mph 1014.1mb 40f 36f
8:18  -  1 mph 1014.2mb 40f 36f
8:12  -  1 mph 1014.2mb 40f 36f
8:06  -  2 mph 1014.2mb 40f 36f
8:00 1 2 mph 1014.3mb 40f 36f
7:54 2
mph
1014.3mb 40f 35f
7:48 1 2 mph - 40f 35f
7:42 1 2 mph - 40f 35f
7:36 1 2 mph - 40f 35f
7:30 1 2 mph 1014.4mb 40f 35f
7:24 1 2 mph 1014.4mb 40f 36f
7:18 2
mph
1014.4mb 40f 35f
7:12 2 3 mph 1014.5mb 40f 35f
7:06 2
mph
1014.5mb 40f 35f
7:00 2
mph
1014.5mb 40f 35f
6:54 1 2 mph 1014.5mb 40f 35f
6:48 1 2 mph 1014.5mb 40f 35f
6:42 2
mph
1014.5mb 40f 35f
6:36 3
mph
1014.5mb 40f 36f
6:30 2 3 mph 1014.5mb 40f 36f
6:24 2
mph
1014.5mb 40f 36f
6:18 2 3 mph 1014.5mb 40f 36f
6:12 3
mph
1014.5mb 40f 35f
6:06 3
mph
1014.5mb 40f 35f
6:00 3
mph
1014.5mb 40f 35f
5:54 2
mph
1014.5mb 40f 35f
5:48 2
mph
1014.5mb 40f 36f
5:42 1 2 mph 1014.5mb 40f 36f
5:36 2
mph
1014.5mb 40f 36f
5:30 1 2 mph 1014.5mb 40f 37f
5:24 2 3 mph 1014.5mb 40f 36f
5:18 2 3 mph 1014.5mb 40f 36f
5:12 1 2 mph 1014.6mb 41f 37f
5:06  -  1 mph 1014.6mb 41f 37f
5:00  -  1 mph 1014.6mb 41f 37f
4:54  -  1 mph 1014.6mb 41f 37f
4:48  -  1 mph 1014.6mb 41f 38f
4:42 1 2 mph 1014.7mb 41f 38f
4:36 2
mph
1014.7mb 41f 38f
4:30 2
mph
1014.7mb 41f 38f
4:24 2 3 mph 1014.7mb 41f 38f
4:18 2
mph
1014.8mb 41f 38f
4:12 2
mph
1014.8mb 41f 38f
4:06 2 3 mph 1014.8mb 41f 38f
4:00 2
mph
1014.8mb 41f 38f
3:54 1 2 mph 1014.9mb 40f 38f
3:48 2 3 mph 1014.9mb 40f 38f
3:42 2
mph
1014.9mb 40f 38f
3:36 1 3 mph 1014.9mb 40f 39f
3:30 3
mph
1014.9mb 40f 39f
3:24 2 3 mph 1014.9mb 40f 39f
3:18 2 3 mph 1014.9mb 40f 39f
3:12 2 3 mph 1014.9mb 40f 38f
3:06 2 3 mph 1015mb 40f 38f
3:00 3
mph
1015.1mb 40f 39f
2:54 2 5 mph 1015.1mb 40f 39f
2:48 3 5 mph 1015.1mb 40f 39f
2:42 3 5 mph 1015.1mb 40f 39f
2:36 2 3 mph 1015.1mb 40f 39f
2:30 2 5 mph 1015.1mb 40f 39f
2:24 3 5 mph 1015.1mb 40f 39f
2:18 2 3 mph 1015.2mb 40f 39f
2:12 2 3 mph 1015.1mb 40f 38f
2:06 3
mph
1015mb 40f 39f
2:00 3 5 mph 1015mb 40f 39f
1:54 2 3 mph 1015mb 40f 39f
1:48 3 5 mph 1015mb 40f 39f
1:42 2
mph
1015mb 39f 39f
1:36 2 3 mph 1015mb 39f 39f
1:30 3
mph
1015.1mb 39f 39f
1:24 1 2 mph 1015.3mb 39f 39f
1:18 2 3 mph 1015.3mb 39f 39f
1:12 2 3 mph 1015.3mb 39f 39f
1:06 1 2 mph 1015.3mb 39f 39f
1:00 2 3 mph 1015.3mb 39f 38f
12:54 2 3 mph 1015.5mb 39f 38f
12:48 1 3 mph 1015.4mb 39f 38f
12:42 2 3 mph 1015.5mb 39f 38f
12:36 3
mph
1015.6mb 39f 38f
12:30 2 5 mph 1015.8mb 40f 38f
12:24 3 5 mph 1015.8mb 40f 38f
12:18 3 5 mph 1015.9mb 40f 38f
12:12 3 6 mph 1015.9mb 40f 38f
12:06 5
mph
1016mb 40f 38f
12:00 3 5 mph 1016.1mb 40f 38f
11:54 2 5 mph 1016.2mb 40f 38f
11:48 2 3 mph 1016.3mb 40f 38f
11:42 3
mph
1016.5mb 40f 38f
11:36 3
mph
1016.6mb 40f 38f
11:30 3 6 mph 1016.6mb 40f 38f
11:24 5
mph
1016.6mb 40f 38f
11:18 3 5 mph 1016.8mb 40f 38f
11:12 2 3 mph 1017mb 40f 38f
11:06 3 5 mph 1017.1mb 40f 38f
11:00 1 6 mph 1017.1mb 40f 38f
10:54 3 5 mph 1017.1mb 40f 38f
10:48 2 6 mph 1017.1mb 40f 38f
10:42 5 6 mph 1017.1mb 40f 38f
10:36  -  3 mph 1017.2mb 40f 38f
10:30 2 5 mph 1017.3mb 40f 38f
10:24 2 3 mph 1017.5mb 40f 38f
10:18 2 3 mph 1017.7mb 40f 37f
10:12 2
mph
1017.7mb 40f 37f
10:06 2 3 mph 1017.6mb 40f 37f
10:00 2 3 mph 1017.6mb 40f 37f
9:54 3
mph
1017.5mb 40f 37f
9:48 3 5 mph 1017.5mb 40f 36f
9:42 3 5 mph 1017.5mb 40f 36f
9:36 3 5 mph 1017.5mb 40f 36f
9:30 3 5 mph 1017.4mb 40f 36f
9:24 3 5 mph 1017.3mb 40f 36f
9:18 5 6 mph 1017.2mb 40f 35f
9:12 5
mph
1017.1mb 40f 35f
9:06 3 6 mph 1017.2mb 40f 35f
9:00 5 6 mph 1017.2mb 40f 35f
8:54 6 7 mph 1017.1mb 40f 35f
8:48 6 8 mph 1017mb 40f 35f
8:42 7
mph
1016.9mb 40f 35f
8:36 5 6 mph 1017mb 40f 35f
8:30 3 5 mph 1017.1mb 40f 35f
8:24 2 5 mph 1017.2mb 40f 35f
8:18 2 3 mph 1017.3mb 40f 35f
8:12 2 3 mph 1017.3mb 40f 35f
8:06 1 2 mph 1017.2mb 40f 35f
8:00 2
mph
1017.2mb 40f 34f
7:54 2
mph
1017.2mb 40f 34f
7:48 2
mph
1017.3mb 40f 34f
7:42 2
mph
1017.4mb 40f 34f
7:36 1 3 mph 1017.2mb 40f 34f
7:30 2 3 mph 1017.3mb 40f 34f
7:24 2 3 mph 1017.2mb 40f 34f
7:18 2 3 mph 1017.2mb 40f 34f
7:12 2
mph
1017.1mb 40f 34f
7:06 2
mph
1016.9mb 40f 34f
7:00 2 3 mph 1017mb 40f 33f
6:54 2 3 mph 1017mb 40f 33f
6:48 2 3 mph 1017mb 40f 33f
6:42 2 3 mph 1016.9mb 40f 33f
6:36 2
mph
1016.8mb 40f 34f
6:30 1 2 mph 1016.6mb 40f 33f
6:24 2
mph
1016.7mb 40f 33f
6:18 1 2 mph 1016.8mb 40f 34f
6:12 2
mph
1016.8mb 40f 34f
6:06 2
mph
1016.8mb 40f 35f
6:00 2
mph
1016.8mb 40f 35f
5:54 2 3 mph 1016.8mb 40f 35f
5:48 2 3 mph 1016.7mb 40f 34f
5:42 2 5 mph 1016.7mb 40f 34f
5:36 3 5 mph 1016.6mb 40f 34f
5:30 3
mph
1016.6mb 40f 35f
5:24 2 3 mph 1016.7mb 40f 35f
5:18 2 3 mph 1016.8mb 40f 35f
5:12 2 3 mph 1016.7mb 40f 35f
5:06 3 5 mph 1016.6mb 40f 35f
5:00 3 5 mph 1016.7mb 40f 35f
4:54 3 5 mph 1016.7mb 40f 35f
4:48 5
mph
1016.5mb 40f 35f
4:42 5
mph
1016.6mb 40f 35f
4:36 3 5 mph 1016.5mb 40f 35f
4:30 2 5 mph 1016.4mb 40f 35f
4:24 3
mph
1016.4mb 40f 35f
4:18 3 5 mph 1016.5mb 40f 35f
4:12 2 3 mph 1016.6mb 40f 35f
4:06 3 6 mph 1016.6mb 40f 35f
4:00 2 5 mph 1016.5mb 40f 35f
3:54 5 6 mph 1016.4mb 40f 35f
3:48 3 5 mph 1016.4mb 40f 35f
3:42 5 6 mph 1016.4mb 40f 35f
3:36 3 6 mph 1016.4mb 40f 35f
3:30 6
mph
1016.2mb 40f 35f
3:24 5
mph
1016.2mb 40f 35f
3:18 3 5 mph 1016.1mb 40f 35f
3:12 3 5 mph 1016.1mb 40f 35f
3:06 5
mph
1016mb 40f 35f
3:00 3 6 mph 1016.1mb 40f 35f
2:54 6
mph
1016mb 40f 36f
2:48 5 6 mph 1016mb 40f 36f
2:42 5 6 mph 1016mb 40f 36f
2:36 5 6 mph 1016.1mb 40f 36f
2:30 6 8 mph 1016mb 40f 35f
2:24 7 8 mph 1015.9mb 40f 35f
2:18 7 8 mph 1015.8mb 40f 35f
2:12 7 8 mph 1015.5mb 40f 35f
2:06 6 8 mph 1015.5mb 40f 35f
2:00 7 8 mph 1015.4mb 40f 35f
1:54 6 7 mph 1015.5mb 40f 35f
1:48 6 7 mph 1015.4mb 40f 35f
1:42 6
mph
1015.4mb 40f 35f
1:36 6
mph
1015.4mb 40f 35f
1:30 6
mph
1015.4mb 40f 35f
1:24 5 6 mph 1015.4mb 40f 35f
1:18 6
mph
1015.5mb 40f 35f
1:12 5 6 mph 1015.4mb 40f 35f
1:06 5 6 mph 1015.5mb 40f 35f
1:00 5 6 mph 1015.5mb 40f 35f
12:54 5 7 mph 1015.6mb 40f 35f
12:48 6 7 mph 1015.6mb 40f -
12:42 3 5 mph 1015.8mb 40f -
12:36 2 3 mph 1015.9mb 40f -
12:30 2 3 mph 1016mb 40f 35f
12:24 3 5 mph 1016.1mb 39f 35f
12:18 3 5 mph 1016.1mb 39f 35f
12:12 3 5 mph 1016mb 40f 35f
12:06 3 5 mph 1016.1mb 40f 35f
12:00 2 3 mph 1016.4mb 40f 35f
Qui 01/19 11:54 2 3 mph 1016.6mb 40f 35f
11:48 2 5 mph 1016.9mb 40f 35f
11:42 2 6 mph 1017.1mb 40f 35f
11:36 3 5 mph 1017.3mb 40f 35f
11:30 1 3 mph 1017.3mb 40f 35f
11:24 1 2 mph 1017.2mb 40f 35f
11:18  -  2 mph 1017mb 40f 35f
11:12 1 2 mph 1017mb 40f 35f
11:06  -  2 mph 1017mb 40f 35f
11:00  -  2 mph 1017mb 40f 35f
10:54 1 3 mph 1016.9mb 40f 35f
10:48 2 3 mph 1016.9mb 40f 35f
10:42 2 3 mph 1017mb 40f 35f
10:36 3
mph
1017mb 40f 35f
10:30 3 6 mph 1017mb 40f 36f
10:24 3 7 mph 1017.1mb 40f 35f
10:18 3 6 mph 1017mb 40f 35f
10:12 2 3 mph 1017mb 40f 35f
10:06 3 5 mph 1017mb 40f 35f
10:00 3 5 mph 1016.9mb 40f 35f
9:54 5 6 mph 1016.9mb 40f 35f
9:48 2 3 mph 1016.8mb 40f 35f
9:42 1 2 mph 1016.9mb 40f 35f
9:36 1 2 mph 1016.8mb 40f 35f
9:30  -  2 mph 1016.7mb 40f 35f
9:24 1 2 mph 1016.6mb 40f 35f
9:18 2 3 mph 1016.5mb 40f 35f
9:12 2 3 mph 1016.4mb 40f 35f
9:06  -  3 mph 1016.4mb 40f 35f
9:00 2 3 mph 1016.3mb 40f 35f
8:54 2
mph
1016.2mb 40f 35f
8:48 1 5 mph 1016mb 40f 35f
8:42 3 5 mph 1016.1mb 40f 35f
8:36 5 6 mph 1016.1mb 40f 35f
8:30 3
mph
1016mb 40f 35f
8:24 2 3 mph 1016mb 40f 36f
8:18 2 6 mph 1015.9mb 40f 36f
8:12 5 6 mph 1015.9mb 40f 35f
8:06 5 9 mph 1015.9mb 40f 35f
8:00 2 3 mph 1015.8mb 40f 35f
7:54 2 3 mph 1015.6mb 40f 35f
7:48 2
mph
1015.6mb 40f 35f
7:42 2
mph
1015.7mb 40f 35f
7:36 2 3 mph 1015.6mb 40f 35f
7:30 2 3 mph 1015.6mb 40f 36f
7:24 5 6 mph 1015.6mb 40f 35f
7:18 2 3 mph 1015.6mb 40f 35f
7:12 2 3 mph 1015.6mb 40f 35f
7:06 2 5 mph 1015.5mb 40f 35f
7:00 2 3 mph 1015.4mb 40f 35f
6:54 2 3 mph 1015.3mb 40f 35f
6:48  -  2 mph 1015.3mb 40f 36f
6:42 2 3 mph 1015.3mb 40f 36f
6:36 1 3 mph 1015.2mb 40f 35f
6:30 3
mph
1015.1mb 40f 35f
6:24 2 3 mph 1015.1mb 40f 35f
6:18 2 5 mph 1014.9mb 40f 35f
6:12 3
mph
1014.8mb 40f 35f
6:06 2 3 mph 1014.7mb 40f 35f
6:00 2
mph
1014.6mb 40f 35f
5:54 1 2 mph 1014.6mb 40f 35f
5:48 2 3 mph 1014.5mb 40f 35f
5:42 3
mph
1014.4mb 40f 35f
5:36 2
mph
1014.3mb 40f 35f
5:30 1 3 mph 1014.2mb 40f 36f
5:24 2
mph
1014.2mb 40f 35f
5:18 2
mph
1014.1mb 40f 35f
5:12 2
mph
1014.1mb 40f 36f
5:06 2
mph
1014mb 40f 36f
5:00 2
mph
1013.9mb 40f 35f
4:54 2 6 mph 1013.8mb 40f 36f
4:48 3 6 mph 1013.9mb 40f 36f
4:42  -  3 mph 1013.8mb 40f 36f
4:36 3 5 mph 1013.8mb 40f 36f
4:30  -  3 mph 1013.8mb 40f 37f
4:24 2
mph
1013.6mb 40f 36f
4:18 1 2 mph 1013.6mb 40f 36f
4:12 1
mph
1013.6mb 40f 37f
4:06  -  2 mph 1013.6mb 40f 37f
4:00 2
mph
1013.6mb 40f 37f
3:54 1 2 mph 1013.7mb 40f 37f
3:48  -  2 mph 1013.6mb 40f 37f
3:42 2
mph
1013.6mb 40f 38f
3:36 1 2 mph 1013.6mb 40f 39f
3:30 1 2 mph 1013.6mb 40f 39f
3:24 1 2 mph 1013.6mb 40f 38f
3:18 2
mph
1013.5mb 40f 37f
3:12 1 2 mph 1013.5mb 40f 38f
3:06 2 3 mph 1013.5mb 40f 38f
3:00 2 3 mph 1013.4mb 40f 38f
2:54 3
mph
1013.4mb 40f 38f
2:48 2 3 mph 1013.3mb 40f 39f
2:42 2 3 mph 1013.3mb 40f 40f
2:36 2 3 mph 1013.3mb 40f 42f
2:30 2 3 mph 1013.2mb 40f 41f
2:24 3 5 mph 1013.2mb 40f 40f
2:18 2 3 mph 1013.2mb 40f 38f
2:12 2 5 mph 1013.3mb 40f 39f
2:06 5 6 mph 1013.3mb 40f 39f
2:00 5 6 mph 1013.3mb 40f 39f
1:54 5 6 mph 1013.4mb 40f 39f
1:48 5 6 mph 1013.6mb 40f 40f
1:42 2 5 mph 1013.6mb 40f 40f
1:36 3 5 mph 1013.7mb 40f 40f
1:30 3
mph
1013.7mb 40f 40f
1:24 2 3 mph 1013.7mb 40f 40f
1:18 2 3 mph 1013.8mb 39f 39f
1:12 2
mph
1013.8mb 39f 40f
1:06 2
mph
1013.9mb 38f 39f
1:00 1 2 mph 1013.9mb 38f 36f
12:54  -  2 mph 1013.8mb 38f 36f
12:48 1 2 mph 1013.8mb 38f 36f
12:42 1 3 mph 1013.8mb 37f 35f
12:36 2 5 mph 1013.9mb 37f 36f
12:30 2 3 mph 1013.9mb 37f 35f
12:24 3 5 mph 1013.9mb 37f 35f
12:18 3 6 mph 1014mb 37f 34f
12:12 1 5 mph 1014.1mb 37f 34f
12:06 2 6 mph 1014.2mb 37f 34f
12:00 2 6 mph 1014.3mb 37f 33f
11:54 3 6 mph 1014.5mb 37f 33f
11:48 2 6 mph 1014.5mb 37f 33f
11:42 5 6 mph 1014.6mb 37f 33f
11:36 3 6 mph 1014.6mb 38f 33f
11:30 5 6 mph 1014.7mb 38f 33f
11:24 5 7 mph 1014.9mb 38f 33f
11:18 5 7 mph 1015mb 38f 33f
11:12 5 7 mph 1015.1mb 38f 32f
11:06 5 8 mph 1015.2mb 38f 32f
11:00 3 8 mph 1015.4mb 38f 32f
10:54 3 5 mph 1015.5mb 38f 32f
10:48 2 6 mph 1015.6mb 38f 32f
10:42 3 5 mph 1015.6mb 38f 32f
10:36 2 5 mph 1015.5mb 38f 32f
10:30 2 3 mph 1015.6mb 38f 32f
10:24 2 3 mph 1015.7mb 38f 32f
10:18  -  1 mph 1015.8mb 38f 32f
10:12 1 2 mph 1015.9mb 38f 32f
10:06 1 2 mph 1016mb 38f 31f
10:00  -  1 mph 1015.9mb 38f 32f
9:54  -  1 mph 1015.9mb 38f 32f
9:48  -  1 mph 1016mb 38f 31f
9:42  -  1 mph 1015.9mb 38f 31f
9:36  -  1 mph 1015.8mb 38f 30f
9:30  -  1 mph 1015.7mb 38f 30f
9:24  -  1 mph 1015.7mb 38f 30f
9:18 1 2 mph 1015.7mb 38f 29f
9:12 1 2 mph 1015.9mb 39f 29f
9:06  -  3 mph 1015.9mb 39f 29f
9:00 2
mph
1016mb 39f 29f
8:54 1 2 mph 1015.9mb 39f 29f
8:48  -  2 mph 1015.9mb 39f 29f
8:42 2
mph
1016mb 39f 29f
8:36 2
mph
1016mb 39f 28f
8:30 3 5 mph 1016.1mb 39f 28f
8:24 2 3 mph 1016.1mb 39f 28f
8:18 2 3 mph 1016.1mb 39f 28f
8:12 2 3 mph 1016mb 39f 28f
8:06 3
mph
1015.9mb 39f 28f
8:00 2 3 mph 1015.9mb 39f 28f
7:54 2 3 mph 1016mb 39f 28f
7:48 3
mph
1016.1mb 39f 28f
7:42 2 3 mph 1016mb 39f 28f
7:36 2 3 mph 1015.9mb 39f 28f
7:30 1 2 mph 1016mb 39f 28f
7:24 1 3 mph 1016mb 39f 28f
7:18 2 3 mph 1016mb 39f 28f
7:12 1 2 mph 1016mb 39f 28f
7:06 1 2 mph 1015.9mb 39f 28f
7:00 2 3 mph 1015.9mb 39f 28f
6:54 2 3 mph 1015.9mb 39f 28f
6:48 2 3 mph 1015.8mb 39f 28f
6:42 2 3 mph 1015.8mb 39f 28f
6:36 2 3 mph 1015.8mb 39f 28f
6:30  -  2 mph 1015.5mb 39f 28f
6:24 2 3 mph 1015.6mb 39f 27f
6:18 2 3 mph 1015.7mb 39f 28f
6:12 2 3 mph 1015.8mb 39f 28f
6:06 3 5 mph 1016mb 39f 28f
6:00 3
mph
1016.1mb 39f 28f
5:54 2 3 mph 1015.9mb 40f 28f
5:48 2
mph
1015.9mb 40f 28f
5:42 1 2 mph 1015.8mb 40f 28f
5:36 2
mph
1015.8mb 40f 28f
5:30 1 3 mph 1015.7mb 40f 28f
5:24 2 3 mph 1015.9mb 40f 28f
5:18 2 3 mph 1015.8mb 40f 28f
5:12 2 3 mph 1015.8mb 40f 28f
5:06 1 5 mph 1015.9mb 40f 27f
5:00 3 5 mph 1015.9mb 40f 28f
4:54 3 5 mph 1015.9mb 40f 28f
4:48 5 6 mph 1015.8mb 40f 27f
4:42 6
mph
1015.8mb 40f 28f
4:36 5 6 mph 1015.8mb 40f 28f
4:30 5 6 mph 1015.8mb 40f 28f
4:24 3 6 mph 1015.6mb 40f 28f
4:18 5 6 mph 1015.8mb 40f 27f
4:12 5 9 mph 1015.9mb 40f 28f
4:06 6 7 mph 1016mb 40f 27f
4:00 6 7 mph 1016.1mb 40f 28f
3:54 6 7 mph 1016.1mb 40f 28f
3:48 6 7 mph 1016.2mb 40f 28f
3:42 6 7 mph 1016.2mb 40f 27f
3:36 5 6 mph 1016.1mb 40f 27f
3:30 6 7 mph 1016.2mb 40f 27f
3:24 5 6 mph 1016mb 40f 27f
3:18 5 7 mph 1016.1mb 40f 27f
3:12 6 7 mph 1016.2mb 40f 27f
3:06 5 6 mph 1016.2mb 40f 27f
3:00 5 7 mph 1016.3mb 40f 27f
2:54 6
mph
1016.3mb 40f 27f
2:48 5 7 mph 1016.3mb 40f 27f
2:42 7 8 mph 1016.5mb 40f 27f
2:36 6 7 mph 1016.5mb 40f 27f
2:30 5 7 mph 1016.4mb 40f 27f
2:24 6 7 mph 1016.4mb 40f 27f
2:18 6 9 mph 1016.4mb 40f 27f
2:12 6 9 mph 1016.5mb 40f 27f
2:06 7 8 mph 1016.5mb 40f 27f
2:00 5 6 mph 1016.5mb 40f 27f
1:54 6 7 mph 1016.7mb 40f 27f
1:48 7 9 mph 1016.7mb 40f 27f
1:42 7 9 mph 1016.7mb 40f 27f
1:36 6 7 mph 1016.6mb 40f 27f
1:30 6 8 mph 1016.4mb 40f 27f
1:24 5 6 mph 1016.2mb 40f 27f
1:18 3 6 mph 1016mb 40f 27f
1:12 6 8 mph 1015.9mb 40f 27f
1:06 6 7 mph 1016.2mb 40f 27f
1:00 5 7 mph 1016.2mb 40f 27f
12:54 7 9 mph 1016.4mb 39f 27f
12:48 6 9 mph 1016.6mb - -
12:42 7 8 mph 1016.6mb - -
12:36 7 10 mph 1016.8mb - -
12:30 7 11 mph 1016.7mb 38f 27f
12:24 7 9 mph 1016.7mb 37f 27f
12:18 8 10 mph 1016.8mb 37f 27f
12:12 8 11 mph 1016.7mb 37f 27f
12:06 8 9 mph 1016.9mb 36f 27f
12:00 10 13 mph 1016.8mb 36f 27f
Qua 01/18 11:54 10 14 mph 1017mb 36f 27f
11:48 10 13 mph 1017.2mb 36f 27f
11:42 8 11 mph 1017.1mb 36f 27f
11:36 9 13 mph 1016.8mb 36f 27f
11:30 9 13 mph 1017mb 36f 27f
11:24 9 13 mph 1017.2mb 36f 27f
11:18 8 13 mph 1017.2mb 37f 27f
11:12 10 14 mph 1017.2mb 37f 27f
11:06 8 14 mph 1017.3mb 37f 27f
11:00 10 14 mph 1017.3mb 37f 27f
10:54 11 15 mph 1017.2mb 37f 27f
10:48 11 16 mph 1017.2mb 37f 27f
10:42 11 15 mph 1017.5mb 37f 27f
10:36 10 14 mph 1017.3mb 38f 27f
10:30 10 15 mph 1017.2mb 38f 27f
10:24 9 11 mph 1017.4mb 38f 27f
10:18 9 15 mph 1017.4mb 38f 27f
10:12 10 14 mph 1017.6mb 38f 27f
10:06 11 15 mph 1017.4mb 38f 27f
10:00 11 14 mph 1017.2mb 38f 27f
9:54 10 13 mph 1017.1mb 38f 27f
9:48 8 11 mph 1017.3mb 38f 27f
9:42 8 10 mph 1017.6mb 38f 27f
9:36 8 11 mph 1017.5mb 38f 27f
9:30 11 13 mph 1017.6mb 38f 27f
9:24 10 13 mph 1017.7mb 38f 27f
9:18 8 11 mph 1018.1mb 38f 27f
9:12 9 13 mph 1018.1mb 38f 27f
9:06 9 11 mph 1018mb 38f 27f
9:00 8 11 mph 1018.1mb 38f 27f
8:54 8 10 mph 1018.1mb 38f 27f
8:48 10 13 mph 1018.1mb 38f 27f
8:42 8 11 mph 1018.1mb 38f 27f
8:36 8 11 mph 1018mb 38f 27f
8:30 9 13 mph 1018.2mb 38f 27f
8:24 8 10 mph 1018.2mb 38f 27f
8:18 10 13 mph 1018.2mb 38f 27f
8:12 9 11 mph 1018.3mb 38f 27f
8:06 9 14 mph 1018.4mb 39f 27f
8:00 9 13 mph 1018.5mb 39f 28f
7:54 10 14 mph 1018.6mb 39f 28f
7:48 10 14 mph 1018.5mb 39f 28f
7:42 10 16 mph 1018.5mb 39f 28f
7:36 10 14 mph 1018.4mb 39f 28f
7:30 13 16 mph 1018.4mb 39f 28f
7:24 13 15 mph 1018.3mb 39f 28f
7:18 13 14 mph 1018.4mb 39f 28f
7:12 13 15 mph 1018.4mb 39f 28f
7:06 11 17 mph 1018.5mb 38f 28f
7:00 13 15 mph 1018.6mb 38f 28f
6:54 10 14 mph 1018.6mb 38f 28f
6:48 9 14 mph 1018.7mb 38f 28f
6:42 10 14 mph 1018.7mb 38f 28f
6:36 11 15 mph 1018.7mb 38f 28f
6:30 13 14 mph 1018.5mb 39f 28f
6:24 11 14 mph 1018.5mb 39f 28f
6:18 9 14 mph 1018.5mb 39f 28f
6:12 10 16 mph 1018.4mb 39f 28f
6:06 10 14 mph 1018.3mb 39f 28f
6:00 11 14 mph 1018.3mb 39f 29f
5:54 11 14 mph 1018.4mb 39f 29f
5:48 10 13 mph 1018.2mb 39f 29f
5:42 10 15 mph 1018.1mb 39f 29f
5:36 11 14 mph 1018.1mb 39f 29f
5:30 13 14 mph 1018mb 39f 29f
5:24 11 15 mph 1017.9mb 39f 29f
5:18 13 15 mph 1018mb 39f 29f
5:12 11 14 mph 1018mb 39f 29f
5:06 14 18 mph 1018mb 39f 29f
5:00 13 16 mph 1017.9mb 39f 29f
4:54 11 14 mph 1017.7mb 39f 29f
4:48 10 15 mph 1017.6mb 39f 29f
4:42 11 13 mph 1017.5mb 39f 29f
4:36 10 14 mph 1017.4mb 40f 29f
4:30 10 14 mph 1017.5mb 40f 29f
4:24 9 14 mph 1017.5mb 40f 29f
4:18 10 14 mph 1017.4mb 40f 29f
4:12 11 15 mph 1017.6mb 40f 29f
4:06 11 14 mph 1017.6mb 40f 29f
4:00 13 16 mph 1017.6mb 40f 29f
3:54 13 15 mph 1017.5mb 40f 29f
3:48 10 14 mph 1017.5mb 40f 29f
3:42 10 14 mph 1017.6mb 40f 29f
3:36 11 15 mph 1017.6mb 40f 29f
3:30 11 14 mph 1017.5mb 40f 29f
3:24 10 14 mph 1017.4mb 40f 29f
3:18 10 14 mph 1017.3mb 40f 29f
3:12 11 14 mph 1017.3mb 40f 29f
3:06 10 14 mph 1017.3mb 40f 29f
3:00 11 15 mph 1017.3mb 40f 29f
2:54 11 14 mph 1017.3mb 40f 29f
2:48 13 17 mph 1017.4mb 40f 29f
2:42 13 17 mph 1017.5mb 40f 29f
2:36 13 17 mph 1017.5mb 40f 29f
2:30 13 16 mph 1017.4mb 40f 29f
2:24 13 16 mph 1017.4mb 40f 29f
2:18 13 14 mph 1017.4mb 40f 29f
2:06 14 18 mph 1017.1mb 40f 29f
2:00 13 16 mph 1017.1mb 40f 29f
1:54 11 15 mph 1016.8mb 40f 29f
1:48 13 17 mph 1016.9mb 40f 29f
1:42 13 17 mph 1016.9mb 40f 29f
1:36 13 16 mph 1016.8mb 40f 29f
1:30 13 16 mph 1016.7mb 40f 29f
1:24 13 15 mph 1016.7mb 40f 29f
1:18 10 14 mph 1016.6mb 40f 29f
1:12 10 15 mph 1016.6mb 40f 29f
1:06 11 14 mph 1016.7mb 40f 29f
1:00 11 14 mph 1016.7mb 40f 29f
12:54 13 16 mph 1016.7mb 40f 29f
12:48 13 15 mph 1016.7mb 40f 29f
12:42 13 16 mph 1016.7mb 40f 28f
12:36 11 15 mph 1016.8mb 40f 29f
12:30 11 14 mph 1016.9mb 40f 29f
12:24 11 14 mph 1016.9mb 40f 29f
12:18 13 15 mph 1016.9mb 40f 29f
12:12 10 15 mph 1017mb 39f 29f
12:06 14 17 mph 1017mb 39f 29f
12:00 15 17 mph 1017mb 38f 28f
11:54 13 16 mph 1017mb 38f 28f
11:48 11 20 mph 1017mb 37f 28f
11:42 13 15 mph 1017mb 37f 28f
11:36 11 16 mph 1017mb 37f 28f
11:30 13 15 mph 1017mb 37f 28f
11:24 13 16 mph 1017mb 37f 28f
11:18 13 17 mph 1017.2mb 37f 28f
11:12 14 16 mph 1017.2mb 37f 28f
11:06 14 17 mph 1017.3mb 37f 28f
11:00 14 18 mph 1017.4mb 37f 28f
10:54 15 17 mph 1017.3mb 37f 28f
10:48 11 17 mph 1017.5mb 37f 28f
10:42 11 15 mph 1017.5mb 37f 28f
10:36 11 15 mph 1017.6mb 37f 28f
10:30 13 15 mph 1017.7mb 37f 28f
10:24 13 15 mph 1017.9mb 37f 28f
10:18 10 15 mph 1018mb 37f 28f
10:12 13 15 mph 1018mb 37f 28f
10:06 11 16 mph 1018.1mb 37f 28f
10:00 14 17 mph 1018.1mb 38f 28f
9:54 14 17 mph 1018.3mb 38f 28f
9:48 15 18 mph - - -
9:42 14 17 mph 1018.3mb 38f 28f
9:36 14 17 mph 1018.3mb 38f 28f
9:30 14 18 mph 1018.3mb 38f 28f
9:24 14 18 mph 1018.3mb 38f 28f
9:18 11 16 mph 1018.3mb 38f 28f
9:12 13 16 mph 1018.4mb 38f 28f
9:06 13 16 mph 1018.3mb 38f 28f
9:00 15 17 mph 1018.4mb 38f 28f
8:54 11 17 mph 1018.4mb 38f 28f
8:48 13 18 mph 1018.3mb 38f 28f
8:42 13 16 mph 1018.3mb 38f 28f
8:36 14 18 mph 1018.3mb 38f 28f
8:30 13 17 mph 1018.3mb 38f 28f
8:24 14 17 mph 1018.3mb 38f 28f
8:18 13 16 mph 1018.2mb 38f 28f
8:12 14 20 mph 1018.2mb 38f 28f
8:06 13 18 mph 1018.1mb 38f 28f
8:00 14 15 mph 1018.1mb 39f 28f
7:54 13 18 mph 1018.2mb 39f 28f
7:48 13 17 mph 1018.1mb 39f 28f
7:42 13 16 mph 1018.1mb 39f 28f
7:36 13 17 mph 1018.2mb 39f 28f
7:30 14 16 mph 1018.1mb 39f 28f
7:24 14 18 mph 1018.1mb 39f 28f
7:18 13 16 mph 1018.1mb 39f 28f
7:12 13 15 mph 1018.1mb 39f 29f
7:06 11 15 mph 1018.1mb 39f 29f
7:00 11 16 mph 1018.1mb 39f 29f
6:54 11 15 mph 1018.1mb 39f 29f
6:48 13 15 mph 1018.1mb 39f 29f
6:42 11 16 mph 1018.2mb 39f 29f
6:36 13 17 mph 1018.2mb 39f 29f
6:30 15 17 mph 1018.2mb 39f 29f
6:24 13 15 mph 1018.2mb 39f 29f
6:18 13 15 mph 1018.2mb 39f 30f
6:12 10 14 mph 1018.2mb 39f 30f
6:06 13 15 mph 1018.3mb 39f 30f
6:00 11 14 mph 1018.3mb 39f 30f
5:54 11 14 mph 1018.4mb 39f 31f
5:48 11 14 mph 1018.4mb 39f 31f
5:42 11 15 mph 1018.4mb 39f 31f
5:36 11 15 mph 1018.2mb 39f 31f
5:30 10 15 mph 1018.3mb 40f 32f
5:24 10 11 mph 1018.2mb 40f 32f
5:18 7 9 mph 1018.4mb 40f 34f
5:12 9 14 mph 1018.3mb 40f 34f
5:06 9 17 mph 1018.2mb 40f 34f
5:00 13 20 mph 1018.1mb 40f 35f
4:54 14 22 mph 1018.1mb 40f 35f
4:48 16 21 mph 1018mb 40f 35f
4:42 17 22 mph 1018mb 40f 35f
4:36 16 22 mph 1018.1mb 40f 35f
4:30 18 23 mph 1018.1mb 40f 35f
4:24 16 22 mph 1018.1mb 40f 35f
4:18 18 22 mph 1018mb 40f 35f
4:12 15 20 mph 1018.2mb 40f 35f
4:06 17 22 mph 1018.2mb 40f 35f
4:00 17 22 mph 1018.2mb 40f 35f
3:54 20 23 mph 1018.2mb 40f 35f
3:48 17 22 mph 1018.3mb 40f 35f
3:42 18 23 mph 1018.4mb 40f 35f
3:36 18 23 mph 1018.5mb 40f 35f
3:30 15 21 mph 1018.6mb 40f 35f
3:24 17 22 mph 1018.6mb 40f 35f
3:18 15 21 mph 1018.7mb 40f 35f
3:12 17 22 mph 1018.7mb 40f 35f
3:06 16 22 mph 1018.8mb 40f 35f
3:00 17 21 mph 1019.1mb 40f 34f
2:54 14 20 mph 1019.2mb 40f 34f
2:48 17 21 mph 1019.2mb 40f 34f
2:42 17 21 mph 1019.2mb 40f 34f
2:36 15 21 mph 1019.2mb 40f 34f
2:30 16 22 mph 1019.5mb 40f 34f
2:24 16 20 mph 1019.6mb 40f 34f
2:18 17 21 mph 1019.6mb 40f 34f
2:12 17 22 mph 1019.7mb 40f 34f
2:06 17 21 mph 1019.7mb 40f 34f
2:00 14 18 mph 1020mb 40f 34f
1:54 16 21 mph 1020mb 40f 34f
1:48 17 20 mph 1019.9mb 40f 34f
1:42 15 21 mph 1019.9mb 40f 35f
1:36 15 20 mph 1019.9mb 40f 35f
1:30 16 21 mph 1020mb 40f 35f
1:24 17 22 mph 1020mb 40f 34f
1:18 14 18 mph 1020.2mb 40f 35f
1:12 13 17 mph 1020.2mb 40f 35f
1:06 14 17 mph 1020.3mb 40f 35f
1:00 13 15 mph 1020.4mb 40f 34f
12:54 13 16 mph 1020.5mb 40f 34f
12:48 14 17 mph 1020.6mb 40f 34f
12:42 14 18 mph 1020.7mb 40f 34f
12:36 16 20 mph 1020.8mb 40f 34f
12:30 13 18 mph 1020.9mb 40f 34f
12:24 9 15 mph 1021mb 40f 34f
12:18 11 20 mph 1021mb 40f 34f
12:12 13 16 mph 1021mb 39f 34f
12:06 11 16 mph 1021.2mb 39f 34f
12:00 13 17 mph 1021.1mb 39f 34f
Ter 01/17 11:54 13 18 mph 1021.2mb 39f 34f
11:48 11 16 mph 1021.3mb 39f 34f
11:42 10 14 mph 1021.3mb 39f 34f
11:36 14 17 mph 1021.2mb 39f 34f
11:30 11 17 mph 1021.3mb 39f 34f
11:24 16 20 mph 1021.3mb 39f 35f
11:18 13 20 mph 1021.3mb 39f 34f
11:12 14 18 mph 1021.3mb 39f 35f
11:06 14 21 mph 1021.3mb 39f 35f
11:00 14 20 mph 1021.3mb 39f 35f
10:54 15 23 mph 1021.3mb 39f 36f
10:48 17 22 mph 1021.3mb 39f 36f
10:42 16 21 mph 1021.3mb 39f 37f
10:36 14 20 mph 1021.6mb 39f 37f
10:30 17 23 mph 1021.3mb 39f 37f
10:24 13 21 mph 1021.4mb 39f 38f
10:18 14 21 mph 1021.3mb 39f 38f
10:12 16 22 mph 1021.2mb 39f 38f
10:06 14 20 mph 1021.3mb 39f 39f
10:00 16 21 mph 1021.2mb 39f 38f
9:54 14 20 mph 1021.3mb 39f 38f
9:48 14 18 mph 1021.3mb 39f 38f
9:42 16 21 mph 1021.4mb 39f 38f
9:36 15 20 mph 1021.5mb 39f 38f
9:30 15 20 mph 1021.7mb 39f 38f
9:24 14 18 mph 1021.8mb 39f 38f
9:18 14 18 mph 1022mb 39f 38f
9:12 13 17 mph 1022.2mb 39f 38f
9:06 13 17 mph 1022.2mb 39f 38f
9:00 11 16 mph 1022.2mb 39f 38f
8:54 16 20 mph 1022.1mb 39f 38f
8:48 14 18 mph 1022.1mb 39f 38f
8:42 16 21 mph 1022.1mb 39f 38f
8:36 16 20 mph 1022.1mb 39f 38f
8:30 14 16 mph 1022.2mb 39f 38f
8:24 14 16 mph 1022.3mb 39f 38f
8:18 11 15 mph 1022.4mb 39f 38f
8:12 13 17 mph 1022.6mb 39f 38f
8:06 10 15 mph 1022.8mb 39f 38f
8:00 11 15 mph 1022.9mb 39f 38f
7:54 10 15 mph 1022.9mb 39f 38f
7:48 10 14 mph 1022.9mb 39f 38f
7:42 10 14 mph 1022.9mb 39f 38f
7:36 11 15 mph 1022.9mb 39f 38f
7:30 11 14 mph 1022.9mb 39f 38f
7:24 11 15 mph 1023mb 39f 38f
7:18 10 14 mph 1023.1mb 39f 38f
7:12 11 15 mph 1023.2mb 39f 38f
7:06 10 13 mph 1023.3mb 39f 38f
7:00 9 14 mph 1023.3mb 40f 38f
6:54 10 14 mph 1023.2mb 40f 38f
6:48 11 14 mph 1023.2mb 40f 38f
6:42 11 14 mph 1023.2mb 40f 38f
6:36 10 14 mph 1023.2mb 40f 38f
6:30 10 15 mph 1023.2mb 40f 38f
6:24 11 14 mph 1023.2mb 40f 38f
6:18 11 14 mph 1023.2mb 40f 38f
6:12 13 14 mph 1023.3mb 40f 38f
6:06 10 13 mph 1023.3mb 40f 38f
6:00 10 14 mph 1023.3mb 40f 38f
5:54 11 15 mph 1023.3mb 40f 38f
5:48 10 14 mph 1023.3mb 40f 38f
5:42 10 14 mph 1023.3mb 40f 38f
5:36 10 14 mph 1023.2mb 40f 38f
5:30 11 14 mph 1023.2mb 40f 38f
5:24 10 13 mph 1023.2mb 40f 38f
5:18 9 14 mph 1023.3mb 40f 38f
5:12 11 14 mph 1023.3mb 40f 38f
5:06 10 14 mph 1023.3mb 40f 38f
5:00 11 13 mph 1023.4mb 40f 38f
4:54 10 13 mph 1023.4mb 40f 38f
4:48 10 14 mph 1023.4mb 40f 38f
4:42 10 13 mph 1023.4mb 40f 38f
4:36 9 13 mph 1023.4mb 40f 38f
4:30 7 13 mph 1023.3mb 40f 38f
4:24 7 10 mph 1023.4mb 40f 38f
4:18 8 10 mph 1023.4mb 40f 38f
4:12 7 9 mph 1023.4mb 40f 38f
4:06 7 9 mph 1023.5mb 40f 38f
4:00 8 10 mph 1023.6mb 40f 38f
3:54 8 10 mph 1023.5mb 40f 38f
3:48 9 11 mph 1023.5mb 40f 38f
3:42 7 11 mph 1023.5mb 40f 38f